Phuket, Thailand

8:50 PM ICT on September 30, 2016 (GMT +0700)
Phuket International

Weather History for VTSP - September, 2013

Change the Weather History Date:

Tuesday, September 3, 2013

  Actual Average Record
Temperature  
Mean Temperature 82 °F -  
Max Temperature 87 °F 88 °F 96 °F (1997)
Min Temperature 76 °F 77 °F 73 °F (1999)
Cooling Degree Days 16    
Growing Degree Days 32 (Base 50)    
Moisture  
Dew Point 75 °F    
Average Humidity 76    
Maximum Humidity 94    
Minimum Humidity 64    
Precipitation  
Precipitation 0.01 in - - ()
Sea Level Pressure  
Sea Level Pressure 29.86 in    
Wind  
Wind Speed 5 mph ()    
Max Wind Speed 14 mph    
Max Gust Speed -    
Visibility 5.9 miles    
Events Rain , Thunderstorm    
Averages and records for this station are not official NWS values.
T = Trace of Precipitation, MM = Missing Value Source: Averaged Metar Reports

Daily Weather History Graph

Daily Weather History Graph

Search for Another Location

Airport or City:

Trip Planner

Search our weather history database for the weather conditions in past years. The results will help you decide how hot, cold, wet, or windy it might be!

Date:

Astronomy

Sep. 03, 2013 Rise Set
Actual Time 6:18 AM ICT 6:33 PM ICT
Civil Twilight 5:57 AM ICT 6:54 PM ICT
Nautical Twilight 5:32 AM ICT 7:19 PM ICT
Astronomical Twilight 5:08 AM ICT 7:43 PM ICT
Moon 4:17 AM ICT (9/3) 4:53 PM ICT (9/3)
Length of Visible Light 12h 57m
Length of Day
12h 15m
Waning Crescent, 5% of the Moon is Illuminated
Sep 3
Waning Crescent
Sep 5
New
Sep 13
First Quarter
Sep 19
Full
Sep 27
Last Quarter

Hourly Weather History & Observations

Time (ICT) Temp. Heat Index Dew Point Humidity Pressure Visibility Wind Dir Wind Speed Gust Speed Precip Events Conditions
12:00 AM 80.6 °F 86.2 °F 75.2 °F 84% 29.92 in 5.6 mi WNW 4.6 mph - N/A   Mostly Cloudy
12:30 AM 82.4 °F 88.2 °F 73.4 °F 74% 29.89 in 5.0 mi WNW 4.6 mph - N/A   Mostly Cloudy
1:00 AM 83 °F - 76 °F 74% 29.87 in 5 mi WNW 5.8 mph - - Thunderstorm Thunderstorm
1:00 AM 82.4 °F 88.2 °F 73.4 °F 74% 29.89 in 4.3 mi WNW 6.9 mph - N/A Thunderstorm Thunderstorm
1:30 AM 80.6 °F 85.4 °F 73.4 °F 79% 29.89 in 5.0 mi NNW 4.6 mph - N/A   Mostly Cloudy
2:00 AM 80.6 °F 86.2 °F 75.2 °F 84% 29.89 in 5.0 mi NW 3.5 mph - N/A   Mostly Cloudy
2:30 AM 78.8 °F - 75.2 °F 89% 29.86 in 4.3 mi Calm Calm - N/A Rain Light Rain
3:00 AM 78.8 °F - 75.2 °F 89% 29.86 in 5.0 mi Calm Calm - N/A   Mostly Cloudy
3:30 AM 78.8 °F - 75.2 °F 89% 29.86 in 5.0 mi Calm Calm - N/A   Mostly Cloudy
4:00 AM 78.8 °F - 75.2 °F 89% 29.86 in 5.0 mi Calm Calm - N/A   Mostly Cloudy
4:30 AM 77.0 °F - 73.4 °F 89% 29.86 in 5.0 mi Calm Calm - N/A   Mostly Cloudy
6:00 AM 77.0 °F - 73.4 °F 89% 29.83 in 6.2 mi Calm Calm - N/A   Scattered Clouds
6:30 AM 77.0 °F - 73.4 °F 89% 29.86 in 6.2 mi Calm Calm - N/A   Scattered Clouds
7:00 AM 78 °F - 75 °F 89% 29.82 in 6 mi Calm Calm - -   Scattered Clouds
7:00 AM 77.0 °F - 75.2 °F 94% 29.86 in 6.2 mi Calm Calm - N/A   Scattered Clouds
7:30 AM 80.6 °F 87.1 °F 77.0 °F 89% 29.89 in 6.2 mi Calm Calm - N/A   Scattered Clouds
8:00 AM 82.4 °F 89.5 °F 75.2 °F 79% 29.89 in 6.2 mi Calm Calm - N/A   Mostly Cloudy
8:30 AM 84.2 °F 92.3 °F 75.2 °F 74% 29.89 in 6.2 mi NW 3.5 mph - N/A   Scattered Clouds
9:00 AM 84.2 °F 92.3 °F 75.2 °F 74% 29.89 in 6.2 mi WNW 5.8 mph - N/A   Scattered Clouds
9:30 AM 84.2 °F 92.3 °F 75.2 °F 74% 29.89 in 6.2 mi WNW 6.9 mph - N/A   Scattered Clouds
10:00 AM 84.2 °F 92.3 °F 75.2 °F 74% 29.89 in 6.2 mi WNW 8.1 mph - N/A   Scattered Clouds
10:30 AM 86.0 °F 95.1 °F 75.2 °F 70% 29.92 in 6.2 mi WNW 9.2 mph - N/A   Scattered Clouds
11:00 AM 84.2 °F 92.3 °F 75.2 °F 74% 29.89 in 6.2 mi WNW 8.1 mph - N/A   Scattered Clouds
11:30 AM 86.0 °F 93.4 °F 73.4 °F 66% 29.89 in 6.2 mi West 9.2 mph - N/A   Scattered Clouds
12:00 PM 86.0 °F 95.1 °F 75.2 °F 70% 29.89 in 6.2 mi West 10.4 mph - N/A   Scattered Clouds
12:30 PM 87.8 °F 97.6 °F 75.2 °F 66% 29.89 in 6.2 mi West 11.5 mph - N/A   Scattered Clouds
1:00 PM 87 °F - 77 °F 64% 29.84 in 6 mi West 9.2 mph - -   Scattered Clouds
1:00 PM 86.0 °F 95.1 °F 75.2 °F 70% 29.86 in 6.2 mi West 11.5 mph - N/A   Scattered Clouds
1:30 PM 86.0 °F 95.1 °F 75.2 °F 70% 29.86 in 6.2 mi West 10.4 mph - N/A   Scattered Clouds
2:00 PM 86.0 °F 95.1 °F 75.2 °F 70% 29.83 in 6.2 mi West 10.4 mph - N/A   Scattered Clouds
2:30 PM 86.0 °F 95.1 °F 75.2 °F 70% 29.83 in 6.2 mi West 10.4 mph - N/A   Scattered Clouds
3:00 PM 86.0 °F 95.1 °F 75.2 °F 70% 29.80 in 6.2 mi West 10.4 mph - N/A   Scattered Clouds
3:30 PM 87.8 °F 97.6 °F 75.2 °F 66% 29.80 in 6.2 mi West 11.5 mph - N/A   Scattered Clouds
4:00 PM 86.0 °F 95.1 °F 75.2 °F 70% 29.80 in 6.2 mi West 12.7 mph - N/A   Scattered Clouds
4:30 PM 86.0 °F 95.1 °F 75.2 °F 70% 29.80 in 6.2 mi West 12.7 mph - N/A   Scattered Clouds
5:00 PM 86.0 °F 95.1 °F 75.2 °F 70% 29.77 in 6.2 mi West 13.8 mph - N/A   Scattered Clouds
5:30 PM 84.2 °F 90.9 °F 73.4 °F 70% 29.77 in 6.2 mi West 13.8 mph - N/A   Scattered Clouds
6:00 PM 84.2 °F 90.9 °F 73.4 °F 70% 29.80 in 6.2 mi West 13.8 mph - N/A   Scattered Clouds
6:30 PM 84.2 °F 92.3 °F 75.2 °F 74% 29.80 in 6.2 mi WNW 9.2 mph - N/A   Scattered Clouds
7:00 PM 85 °F - 76 °F 69% 29.77 in 6 mi West 4.6 mph - -   Scattered Clouds
7:00 PM 82.4 °F 88.2 °F 73.4 °F 74% 29.80 in 5.6 mi West 9.2 mph - N/A   Mostly Cloudy
7:30 PM 82.4 °F 88.2 °F 73.4 °F 74% 29.83 in 5.6 mi WNW 8.1 mph - N/A   Mostly Cloudy
8:00 PM 82.4 °F 88.2 °F 73.4 °F 74% 29.83 in 5.6 mi West 9.2 mph - N/A   Mostly Cloudy
8:30 PM 82.4 °F 89.5 °F 75.2 °F 79% 29.86 in 6.2 mi West 6.9 mph - N/A   Mostly Cloudy
9:00 PM 82.4 °F 88.2 °F 73.4 °F 74% 29.89 in 6.2 mi WNW 6.9 mph - N/A   Mostly Cloudy
9:30 PM 82.4 °F 88.2 °F 73.4 °F 74% 29.89 in 6.2 mi WNW 8.1 mph - N/A   Mostly Cloudy
10:00 PM 82.4 °F 88.2 °F 73.4 °F 74% 29.89 in 6.2 mi WNW 6.9 mph - N/A   Mostly Cloudy
10:30 PM 82.4 °F 89.5 °F 75.2 °F 79% 29.89 in 6.2 mi WNW 11.5 mph - N/A   Mostly Cloudy
11:00 PM 82.4 °F 89.5 °F 75.2 °F 79% 29.89 in 6.2 mi WNW 5.8 mph - N/A   Mostly Cloudy
11:30 PM 82.4 °F 89.5 °F 75.2 °F 79% 29.89 in 6.2 mi WNW 6.9 mph - N/A   Mostly Cloudy